Regional Weather Roundup
Issued by NWS

Home | Current Version | Previous Version | Text Only | Print | Product List | Glossary Off
Versions: 1 2 3 4 5 6 7 8 9 10 11 12 13 14 15 16 17 18 19 20 21 22 23 24 25 26 27 28 29 30 31 32 33 34 35 36 37 38 39 40 41 42 43 44 45 46 47 48 49 50

000
ASUS43 KMPX 191101
RWRMN
WEATHER ROUNDUP FOR MINNESOTA
NATIONAL WEATHER SERVICE TWIN CITIES/CHANHASSEN MN
500 AM CST SUN FEB 19 2017


NOTE: "FAIR" INDICATES FEW OR NO CLOUDS BELOW 12,000 FEET WITH NO
SIGNIFICANT WEATHER AND/OR OBSTRUCTIONS TO VISIBILITY. N/A MEANS
CURRENT SKY AND/OR WEATHER CONDITIONS ARE NOT AVAILABLE.

MNZ060>063-068>070-191200-
   Twin Cities Metro

CITY           SKY/WX    TMP DP  RH WIND       PRES   REMARKS
TWIN CITIES    CLOUDY    33  30  88 E5        29.91S WCI  29
ST PAUL        PTCLDY    31  31 100 E3        29.93R FOG
CRYSTAL        CLEAR     27  24  89 CALM      29.90R
BLAINE         CLEAR     30  30 100 CALM      29.90S
LAKEVILLE      CLOUDY    30  30 100 CALM      29.91S
EDEN PRAIRIE   CLOUDY    33  31  92 E5        29.89F WCI  29
SOUTH ST PAUL  CLEAR     31  30  97 CALM      29.92S
LAKE ELMO      FAIR      30  30 100 CALM      29.93R
$$
MNZ001>005-007-008-013>017-022>024-027-028-191200-
   Northwest Minnesota

CITY           SKY/WX    TMP DP  RH WIND       PRES   REMARKS
BEMIDJI        CLOUDY    29  28  99 SE5       29.87S WCI  23
HALLOCK        CLOUDY    36  32  87 E10       29.84F
ROSEAU         CLOUDY    34  28  80 E7        29.88S WCI  28
WARROAD        CLOUDY    30  27  86 E6        29.89  WCI  24
THIEF RVR FALL CLOUDY    34  30  85 E12       29.85S WCI  25
CROOKSTON      CLOUDY    36  34  93 E13       29.83S
FOSSTON        CLOUDY    32  30  93 E9        29.84F WCI  24
DETROIT LAKES  CLOUDY    37  34  87 SE5       29.83S
MOORHEAD       PTCLDY    37  34  87 E7        29.80S
PARK RAPIDS    CLOUDY    33  29  85 E5        29.86R WCI  29
MAHNOMEN       FAIR      36  32  87 E8        29.83S
$$
MNZ006-009>011-018-025>026-191200-
   North Central Minnesota

CITY           SKY/WX    TMP DP  RH WIND       PRES   REMARKS
BAUDETTE       CLOUDY    31  28  89 E3        29.88S
FLAG ISLAND    CLOUDY    28  27  93 CALM      29.88F
INTL FALLS     CLOUDY    30  28  92 CALM      29.90R
WASKISH        CLOUDY    32  30  93 E3        29.88S
BIG FORK       CLOUDY    30  28  93 CALM      29.89F
LONGVILLE      CLOUDY    27  25  93 CALM      29.90R
GRAND RAPIDS   CLOUDY    27  27 100 CALM      29.91S
CRANE LAKE     CLOUDY    25  25 100 CALM      29.92F
ORR            CLOUDY    30  27  86 CALM      29.89R
COOK           CLOUDY    28  28 100 CALM      29.92R
WALKER         FAIR      29  28  96 SE3       29.88S
$$
MNZ012-019>021-037-191200-
   Northeast Minnesota

CITY           SKY/WX    TMP DP  RH WIND       PRES   REMARKS
DULUTH         CLEAR     31  28  89 NE6       29.90R WCI  25
ELY            CLOUDY    28  27  93 CALM      29.91R
HIBBING        CLOUDY    27  27 100 CALM      29.90R
EVELETH        CLOUDY    30  28  94 CALM      29.91S
DULUTH HARBOR  CLEAR     34  30  86 CALM      29.93S
TWO HARBORS    CLOUDY    37  30  75 CALM      29.91R
GRAND MARAIS     N/A     31  28  89 NW3       29.92R
G MARAIS ARPRT PTCLDY    28  23  80 CALM      29.89R
$$
MNZ029>031-032-039>041-046>048-054>057-064-191200-
   West Central Minnesota

CITY           SKY/WX    TMP DP  RH WIND       PRES   REMARKS
FERGUS FALLS   CLOUDY    43  36  75 SE9       29.84S
WHEATON        PTCLDY    34  32  93 SE10      29.81S WCI  26
MORRIS         PTCLDY    36  36 100 SE10      29.81R
ALEXANDRIA     PTCLDY    38  35  89 SE8       29.85R
ELBOW LAKE     FAIR      39  37  90 SE10      29.81S
WADENA         CLOUDY    32  30  93 E5        29.85S FOG     WCI  27
GLENWOOD       PTCLDY    36  34  93 E7        29.85S
APPLETON       PTCLDY    37  36  93 SE8       29.81F
BENSON         PTCLDY    43  36  75 S9        29.84S
ORTONVILLE     CLOUDY    36  32  87 CALM      29.80R
WILLMAR        FAIR      37  36  93 CALM      29.87S
$$
MNZ033>034-036-042>043-049>051-058-059-191200-
   Central Minnesota

CITY           SKY/WX    TMP DP  RH WIND       PRES   REMARKS
ST CLOUD       CLOUDY    29  29 100 CALM      29.89R
SAUK CENTRE    FAIR      34  34 100 E7        29.86F WCI  28
PAYNESVILLE    PTCLDY    29  29 100 NE3       29.88F
AITKIN         CLOUDY    28  25  86 CALM      29.89R
PINE RIVER     CLOUDY    27  27 100 CALM      29.93R
BRAINERD       CLOUDY    27  26  96 CALM      29.89R FOG
STAPLES        CLOUDY    32  32 100 E3        29.87R FOG
LONG PRAIRIE   FAIR      32  32 100 CALM      29.87S
LITTLE FALLS     N/A     28  28 100 CALM      29.89S FOG
LITCHFIELD     CLOUDY    36  34  93 E5        29.89S FOG
BUFFALO        CLEAR     31  30  96 CALM      29.90S FOG
MAPLE LAKE     FOG       31  31 100 CALM      29.90S VSB 1/2
HUTCHINSON     CLOUDY    34  34 100 E3        29.90R
$$
MNZ037-044-045-052-053-191200-
   East Central Minnesota

CITY           SKY/WX    TMP DP  RH WIND       PRES   REMARKS
PRINCETON      CLEAR     28  28 100 CALM      29.90S FOG
MORA           CLEAR     27  27 100 CALM      29.92R
CAMBRIDGE      CLEAR     30  25  80 CALM      29.89R
RUSH CITY      PTCLDY    28  28 100 CALM      29.91S FOG
MOOSE LAKE     CLOUDY    28  27  93 CALM      29.89S
HINCKLEY       FAIR      28  28 100 CALM      29.92R
CLOQUET        CLOUDY    30  27  86 CALM      29.91S
MCGREGOR       CLOUDY    30  28  93 CALM      29.90S
$$
MNZ071>073-080-081-089-090-097-098-191200-
   Southwest Minnesota

CITY           SKY/WX    TMP DP  RH WIND       PRES   REMARKS
MONTEVIDEO     PTCLDY    34  34 100 S9        29.84S WCI  26
GRANITE FALLS  CLOUDY    38  36  90 E8        29.85S
CANBY          PTCLDY    34  33  96 CALM      29.82S
MARSHALL       CLEAR     37  35  92 S9        29.83S
REDWOOD FALLS  PTCLDY    35  32  88 SE8       29.86S WCI  29
OLIVIA         CLOUDY    37  36  93 SE6       29.85S
PIPESTONE      CLOUDY    43  36  75 S13       29.81S
WINDOM         CLEAR     39  37  93 S6        29.86S
WORTHINGTON    CLEAR     39  37  92 S10       29.86R
JACKSON        CLEAR     37  37 100 S8        29.88R
TRACY          CLEAR     44  40  87 S15G22    29.84R
SLAYTON        CLEAR     33  33  99 SE9       29.85S FOG     WCI  25
$$
MNZ065>067-074>077-082>085-091>093-191200-
   South Central Minnesota

CITY           SKY/WX    TMP DP  RH WIND       PRES   REMARKS
MANKATO          N/A     35  34  96 SE7       29.89S WCI  29
NEW ULM        CLOUDY    36  34  93 S6        29.88R
ST JAMES       CLEAR     36  36 100 S8        29.88S
FAIRMONT       CLEAR     34  34 100 S8        29.89S FOG     WCI  27
FARIBAULT      CLOUDY    30  28  93 CALM      29.91S
OWATONNA       CLOUDY    30  28  93 CALM      29.91R
WASECA         CLOUDY    34  32  93 E5        29.91S WCI  30
ALBERT LEA     FOG       34  34 100 S3        29.90S VSB 1/4
$$
MNZ078>079-086>088-094>096-191200-
   Southeast Minnesota

CITY           SKY/WX    TMP DP  RH WIND       PRES   REMARKS
ROCHESTER      FOG       33  33 100 SE8       29.92R VSB 1/2 WCI  26
RED WING       CLOUDY    30  28  93 E3        29.93R
STANTON        PTCLDY    31  29  93 CALM      29.90F
DODGE CENTER   CLOUDY    34  34 100 SE5       29.91R WCI  30
WINONA         CLEAR     30  30 100 CALM      29.95R
AUSTIN         CLOUDY    28  28 100 CALM      29.91R FOG
PRESTON        CLOUDY    34  33  96 CALM      29.93S FOG
$$
ABBREVIATIONS USED IN REMARKS
   TC - TEMPERATURES IN CELSIUS
  WCI - WIND CHILL INDEX
   HX - HEAT INDEX
  VSB - VISIBILITY
$$



USA.gov is the U.S. government's official web portal to all federal, state and local government web resources and services.